| time (UTC) | temp F | wind direction | speed knots | gust knots | rain 1hr in | rain 24hr in | rain mn in | humidity % | barometer mb |
| 20260502213120 | 42 | 249 | 0.0 | 0.0 | 0.00 | 0.00 | 0.00 | 85 | 1022.0 |
| 20260502211615 | 42 | 249 | 0.0 | 0.0 | 0.00 | 0.00 | 0.00 | 84 | 1022.0 |
| 20260502210111 | 43 | 249 | 0.0 | 0.0 | 0.00 | 0.00 | 0.00 | 83 | 1022.1 |
| 20260502203110 | 44 | 249 | 0.0 | 0.0 | 0.00 | 0.00 | 0.00 | 82 | 1022.3 |
| 20260502200111 | 46 | 249 | 0.0 | 0.0 | 0.00 | 0.00 | 0.00 | 79 | 1022.4 |
| 20260502194622 | 47 | 249 | 0.0 | 0.0 | 0.00 | 0.00 | 0.00 | 77 | 1022.3 |
| 20260502191618 | 49 | 249 | 0.0 | 0.0 | 0.00 | 0.00 | 0.00 | 74 | 1022.2 |
| 20260502184607 | 50 | 249 | 0.0 | 1.7 | 0.00 | 0.00 | 0.00 | 71 | 1022.1 |
| 20260502181614 | 53 | 249 | 0.0 | 0.0 | 0.00 | 0.00 | 0.00 | 67 | 1022.1 |
| 20260502161617 | 65 | 235 | 0.9 | 1.7 | 0.00 | 0.00 | 0.00 | 43 | 1022.1 |
| 20260502160116 | 64 | 237 | 1.7 | 6.1 | 0.00 | 0.00 | 0.00 | 41 | 1022.4 |
| 20260502150120 | 66 | 255 | 0.0 | 4.3 | 0.00 | 0.00 | 0.00 | 43 | 1022.5 |
| 20260502121616 | 65 | 240 | 0.9 | 7.8 | 0.00 | 0.00 | 0.00 | 44 | 1024.2 |
| 20260502114617 | 63 | 278 | 5.2 | 11.3 | 0.00 | 0.00 | 0.00 | 44 | 1024.6 |
| 20260502111617 | 63 | 251 | 0.9 | 7.0 | 0.00 | 0.00 | 0.00 | 48 | 1024.9 |
| 20260502110119 | 61 | 238 | 0.9 | 7.0 | 0.00 | 0.00 | 0.00 | 48 | 1025.0 |
| 20260502103119 | 61 | 244 | 1.7 | 6.1 | 0.00 | 0.00 | 0.00 | 49 | 1025.6 |
| 20260502101614 | 61 | 276 | 0.9 | 7.0 | 0.00 | 0.00 | 0.00 | 47 | 1025.9 |
| 20260502064613 | 48 | 259 | 0.0 | 0.0 | 0.00 | 0.00 | 0.00 | 68 | 1027.0 |
| 20260502061613 | 42 | 259 | 0.0 | 0.0 | 0.00 | 0.00 | 0.00 | 84 | 1027.0 |
| 20260502054621 | 38 | 259 | 0.0 | 0.0 | 0.00 | 0.00 | 0.00 | 90 | 1027.2 |
| 20260502053114 | 36 | 259 | 0.0 | 0.0 | 0.00 | 0.00 | 0.00 | 91 | 1027.2 |
| 20260502050117 | 34 | 259 | 0.0 | 0.0 | 0.00 | 0.00 | 0.00 | 91 | 1027.1 |
| 20260502043114 | 34 | 259 | 0.0 | 0.0 | 0.00 | 0.00 | 0.00 | 90 | 1027.1 |
| 20260502041611 | 34 | 259 | 0.0 | 0.0 | 0.00 | 0.00 | 0.00 | 90 | 1027.0 |
| 20260502034615 | 34 | 259 | 0.0 | 0.0 | 0.00 | 0.00 | 0.00 | 89 | 1026.9 |
| 20260502031616 | 34 | 259 | 0.0 | 0.0 | 0.00 | 0.00 | 0.00 | 89 | 1026.8 |
| 20260502024617 | 35 | 259 | 0.0 | 0.0 | 0.00 | 0.00 | 0.00 | 89 | 1026.9 |
| 20260502021614 | 35 | 259 | 0.0 | 0.0 | 0.00 | 0.00 | 0.00 | 88 | 1027.1 |
| 20260502020113 | 35 | 259 | 0.0 | 0.0 | 0.00 | 0.00 | 0.00 | 88 | 1027.0 |
| 20260502014610 | 36 | 259 | 0.0 | 0.9 | 0.00 | 0.00 | 0.00 | 89 | 1027.0 |
| 20260502011618 | 36 | 259 | 0.0 | 0.0 | 0.00 | 0.00 | 0.00 | 88 | 1027.0 |
| 20260502004615 | 36 | 259 | 0.0 | 0.0 | 0.00 | 0.00 | 0.00 | 86 | 1027.2 |
| 20260502003113 | 36 | 259 | 0.0 | 0.0 | 0.00 | 0.00 | 0.00 | 86 | 1027.1 |
| 20260502000124 | 37 | 259 | 0.0 | 0.0 | 0.00 | 0.00 | 0.00 | 84 | 1027.1 |
| 20260501234609 | 37 | 259 | 0.0 | 0.9 | 0.00 | 0.00 | 0.00 | 84 | 1027.3 |
| 20260501231612 | 37 | 259 | 0.0 | 0.0 | 0.00 | 0.00 | 0.00 | 84 | 1027.2 |
| 20260501224613 | 38 | 259 | 0.0 | 0.0 | 0.00 | 0.00 | 0.00 | 83 | 1027.2 |
| 20260501223111 | 38 | 259 | 0.0 | 0.0 | 0.00 | 0.00 | 0.00 | 83 | 1027.0 |
| 20260501220142 | 38 | 259 | 0.0 | 0.0 | 0.00 | 0.00 | 0.00 | 81 | 1026.8 |